Regional Weather Roundup
Issued by NWS

Home | Current Version | Previous Version | Graphics & Text | Print | Product List | Glossary On
Versions: 1 2 3 4 5 6 7 8 9 10 11 12 13 14 15 16 17 18 19 20 21 22 23 24 25 26 27 28 29 30 31 32 33 34 35 36 37 38 39 40 41 42 43 44 45 46 47 48 49 50
000
ASUS43 KBIS 030002
RWRND

NORTH DAKOTA REGIONAL WEATHER ROUNDUP
NATIONAL WEATHER SERVICE BISMARCK ND
700 PM CDT SUN AUG 02 2015

NOTE: "FAIR" INDICATES FEW OR NO CLOUDS BELOW 12,000 FEET WITH NO
SIGNIFICANT WEATHER AND/OR OBSTRUCTIONS TO VISIBILITY.


NDZ001>003-009>011-017-030100-
NORTHWEST NORTH DAKOTA

CITY           SKY/WX    TMP DP  RH WIND       PRES   REMARKS
WILLISTON      SUNNY     81  45  28 N15G21    29.97F
6HR MIN TEMP:  76; 6HR MAX TEMP:  82;

MINOT          SUNNY     77  46  33 NW15      29.92S
$$

NDZ018>021-031>035-040>046-030100-
SOUTHWEST NORTH DAKOTA

CITY           SKY/WX    TMP DP  RH WIND       PRES   REMARKS
BISMARCK       SUNNY     78  52  40 N12       29.93S
6HR MIN TEMP:  77; 6HR MAX TEMP:  81;

DICKINSON      SUNNY     79  46  31 N9        29.97S
GARRISON         N/A     76  52  43 NW12      29.94F
6HR MIN TEMP:  73; 6HR MAX TEMP:  77;

HETTINGER ARPT SUNNY     82  47  29 N9        29.99S
$$

NDZ004>008-012>016-024-026-027-054-030100-
NORTHEAST NORTH DAKOTA

CITY           SKY/WX    TMP DP  RH WIND       PRES   REMARKS
GRAND FORKS    SUNNY     76  48  37 NW16G23   29.81S
DEVILS LAKE    SUNNY     75  46  35 NW20      29.87R
$$

NDZ022-023-025-028>030-036>039-047>053-030100-
SOUTHEAST NORTH DAKOTA

CITY           SKY/WX    TMP DP  RH WIND       PRES   REMARKS
FARGO          SUNNY     76  47  35 NW15      29.84R
6HR MIN TEMP:  75; 6HR MAX TEMP:  80;

JAMESTOWN      SUNNY     75  49  39 NW10      29.88F
$$



USA.gov is the U.S. government's official web portal to all federal, state and local government web resources and services.